Weather History for KBCK - January, 2013

Change the Weather History Date:

Saturday, January 19, 2013

  Actual Average (KLSE) Record (KLSE)
Temperature  
Mean Temperature 26 °F 17 °F  
Max Temperature 44 °F 26 °F 50 °F (1947)
Min Temperature 8 °F 8 °F -32 °F (1970)
Degree Days  
Heating Degree Days 39 48  
Month to date heating degree days 908  
Since 1 July heating degree days 3752  
Cooling Degree Days 0 0  
Month to date cooling degree days 0  
Year to date cooling degree days 0  
Moisture  
Dew Point 23 °F    
Average Humidity 76    
Maximum Humidity 100    
Minimum Humidity 51    
Precipitation  
Precipitation 0.00 in 0.04 in 0.65 in (1935)
Month to date precipitation 0.67  
Year to date precipitation 0.67  
Snow  
Snow 0.00 in 0.40 in 5.80 in (1979)
Month to date snowfall 6.1  
Since 1 July snowfall 21.7  
Snow Depth -    
Sea Level Pressure  
Sea Level Pressure 29.77 in    
Wind  
Wind Speed 6 mph (West)    
Max Wind Speed 29 mph    
Max Gust Speed 44 mph    
Visibility 10 miles    
Events Rain , Snow    
T = Trace of Precipitation, MM = Missing Value Source: NWS Daily Summary

Daily Weather History Graph

Daily Weather History Graph

Search for Another Location

Airport or City:

Trip Planner

Search our weather history database for the weather conditions in past years. The results will help you decide how hot, cold, wet, or windy it might be!

Date:

Astronomy

Jan. 19, 2013 Rise Set
Actual Time 7:33 AM CST 4:55 PM CST
Civil Twilight 7:01 AM CST 5:27 PM CST
Nautical Twilight 6:25 AM CST 6:03 PM CST
Astronomical Twilight 5:51 AM CST 6:37 PM CST
Moon 11:24 AM CST (1/19) 1:04 AM CST (1/19)
Length of Visible Light 10h 26m
Length of Day
9h 22m
First Quarter, 57% of the Moon is Illuminated
Jan 19
First Quarter
Jan 26
Full
Feb 3
Last Quarter
Feb 10
New
Feb 17
First Quarter

Hourly Weather History & Observations

Time (CST) Temp. Windchill Dew Point Humidity Pressure Visibility Wind Dir Wind Speed Gust Speed Precip Events Conditions
12:15 AM 30.2 °F - 28.4 °F 93% 29.77 in 10.0 mi Calm Calm - N/A   Clear
12:35 AM 28.4 °F - 28.4 °F 100% 29.77 in 10.0 mi Calm Calm - N/A   Clear
12:55 AM 26.6 °F - 26.6 °F 100% 29.78 in 10.0 mi Calm Calm - N/A   Clear
1:15 AM 26.6 °F - 26.6 °F 100% 29.78 in 10.0 mi Calm Calm - N/A   Clear
1:35 AM 26.6 °F 22.6 °F 26.6 °F 100% 29.78 in 10.0 mi South 3.5 mph - N/A   Clear
1:55 AM 26.6 °F - 26.6 °F 100% 29.79 in 10.0 mi Calm Calm - N/A   Clear
2:15 AM 28.4 °F - 28.4 °F 100% 29.79 in 10.0 mi Calm Calm - N/A   Clear
2:35 AM 28.4 °F - 28.4 °F 100% 29.80 in 10.0 mi Calm Calm - N/A   Clear
2:55 AM 28.4 °F 24.6 °F 28.4 °F 100% 29.80 in 10.0 mi SSW 3.5 mph - N/A   Scattered Clouds
3:15 AM 30.2 °F 26.7 °F 30.2 °F 100% 29.79 in 10.0 mi South 3.5 mph - N/A   Mostly Cloudy
3:35 AM 30.2 °F - 30.2 °F 100% 29.78 in 10.0 mi Calm Calm - N/A   Mostly Cloudy
3:55 AM 30.2 °F - 30.2 °F 100% 29.78 in 10.0 mi Calm Calm - N/A   Mostly Cloudy
4:15 AM 30.2 °F - 30.2 °F 100% 29.77 in 10.0 mi Calm Calm - N/A   Overcast
4:35 AM 30.2 °F - 30.2 °F 100% 29.75 in 10.0 mi Calm Calm - N/A   Overcast
4:55 AM 30.2 °F - 30.2 °F 100% 29.75 in 10.0 mi Calm Calm - N/A   Overcast
5:15 AM 32.0 °F 28.7 °F 32.0 °F 100% 29.76 in 10.0 mi SW 3.5 mph - N/A   Overcast
5:35 AM 32.0 °F - 32.0 °F 100% 29.75 in 10.0 mi Calm Calm - N/A   Overcast
5:55 AM 32.0 °F 28.7 °F 32.0 °F 100% 29.75 in 10.0 mi SSW 3.5 mph - N/A   Overcast
7:15 AM 32.0 °F - 32.0 °F 100% 29.73 in 10.0 mi Calm Calm - N/A   Overcast
7:35 AM 32.0 °F - 32.0 °F 100% 29.71 in 10.0 mi Calm Calm - N/A   Overcast
8:15 AM 32.0 °F - 32.0 °F 100% 29.71 in 10.0 mi Calm Calm - N/A   Mostly Cloudy
8:55 AM 32.0 °F 28.7 °F 32.0 °F 100% 29.70 in 10.0 mi SSW 3.5 mph - N/A   Clear
9:55 AM 35.6 °F 30.7 °F 32.0 °F 87% 29.70 in 10.0 mi SW 5.8 mph - N/A   Clear
10:15 AM 37.4 °F 34.9 °F 32.0 °F 81% 29.70 in 10.0 mi SW 3.5 mph - N/A   Clear
10:35 AM 39.2 °F 33.6 °F 32.0 °F 75% 29.70 in 10.0 mi WSW 8.1 mph - N/A   Clear
11:15 AM 41.0 °F 36.4 °F 32.0 °F 70% 29.68 in 10.0 mi WSW 6.9 mph - N/A   Clear
11:35 AM 41.0 °F 34.7 °F 32.0 °F 70% 29.66 in 10.0 mi WSW 10.4 mph - N/A   Clear
11:55 AM 42.8 °F 38.0 °F 32.0 °F 66% 29.66 in 10.0 mi WSW 8.1 mph 16.1 mph N/A   Clear
12:15 PM 42.8 °F 37.0 °F 32.0 °F 66% 29.65 in 10.0 mi West 10.4 mph - N/A   Scattered Clouds
12:35 PM 42.8 °F 37.0 °F 32.0 °F 66% 29.65 in 10.0 mi West 10.4 mph - N/A   Scattered Clouds
1:15 PM 44.6 °F 38.8 °F 32.0 °F 61% 29.64 in 10.0 mi West 11.5 mph - N/A   Scattered Clouds
1:35 PM 44.6 °F 37.4 °F 32.0 °F 61% 29.64 in 10.0 mi West 16.1 mph 24.2 mph N/A   Scattered Clouds
1:55 PM 42.8 °F 38.6 °F 30.2 °F 61% 29.62 in 10.0 mi West 6.9 mph - N/A   Scattered Clouds
2:15 PM 44.6 °F 37.4 °F 30.2 °F 57% 29.64 in 10.0 mi West 16.1 mph 20.7 mph N/A   Scattered Clouds
2:35 PM 42.8 °F 35.8 °F 32.0 °F 66% 29.64 in 10.0 mi West 13.8 mph 21.9 mph N/A   Clear
2:55 PM 42.8 °F 35.1 °F 32.0 °F 66% 29.65 in 10.0 mi West 16.1 mph 26.5 mph N/A   Clear
3:15 PM 42.8 °F 35.1 °F 30.2 °F 61% 29.65 in 10.0 mi WNW 16.1 mph 26.5 mph N/A   Mostly Cloudy
3:35 PM 41.0 °F 33.1 °F 30.2 °F 65% 29.67 in 10.0 mi WNW 15.0 mph 27.6 mph N/A   Overcast
3:55 PM 39.2 °F 31.6 °F 30.2 °F 70% 29.68 in 10.0 mi WNW 12.7 mph 21.9 mph N/A   Overcast
4:15 PM 39.2 °F 32.0 °F 30.2 °F 70% 29.68 in 10.0 mi WNW 11.5 mph 20.7 mph N/A   Overcast
4:35 PM 39.2 °F 30.2 °F 28.4 °F 65% 29.67 in 10.0 mi West 17.3 mph 24.2 mph N/A   Overcast
4:55 PM 37.4 °F 26.9 °F 28.4 °F 70% 29.67 in 10.0 mi West 20.7 mph 33.4 mph N/A Rain Light Rain
5:15 PM 37.4 °F 26.9 °F 26.6 °F 65% 29.66 in 10.0 mi West 20.7 mph 32.2 mph N/A   Overcast
5:35 PM 37.4 °F 26.1 °F 26.6 °F 65% 29.67 in 10.0 mi West 24.2 mph 31.1 mph N/A   Overcast
6:15 PM 32.0 °F 18.9 °F 15.8 °F 51% 29.73 in 10.0 mi WNW 24.2 mph 42.6 mph N/A   Mostly Cloudy
6:35 PM 28.4 °F 13.0 °F 12.2 °F 51% 29.77 in 10.0 mi WNW 28.8 mph 43.7 mph N/A   Mostly Cloudy
6:55 PM 26.6 °F 12.7 °F 10.4 °F 51% 29.79 in 10.0 mi WNW 20.7 mph 35.7 mph N/A   Mostly Cloudy
7:15 PM 23.0 °F 9.2 °F 8.6 °F 54% 29.81 in 10.0 mi NW 17.3 mph 35.7 mph N/A   Overcast
7:35 PM 21.2 °F 3.9 °F 6.8 °F 54% 29.85 in 10.0 mi WNW 26.5 mph 36.8 mph N/A   Overcast
7:55 PM 19.4 °F 3.6 °F 5.0 °F 54% 29.87 in 10.0 mi WNW 19.6 mph 42.6 mph N/A   Overcast
8:15 PM 17.6 °F 0.9 °F 8.6 °F 68% 29.89 in 1.8 mi WNW 20.7 mph 35.7 mph N/A Snow Light Snow
8:35 PM 15.8 °F 1.4 °F 1.4 °F 53% 29.91 in 10.0 mi WNW 13.8 mph 31.1 mph N/A   Scattered Clouds
8:55 PM 14.0 °F -4.7 °F 1.4 °F 57% 29.93 in 10.0 mi WNW 23.0 mph 38.0 mph N/A   Mostly Cloudy
9:15 PM 14.0 °F -0.2 °F -0.4 °F 53% 29.95 in 10.0 mi NW 12.7 mph 27.6 mph N/A   Overcast
9:35 PM 12.2 °F -4.8 °F -0.4 °F 57% 29.97 in 10.0 mi WNW 17.3 mph 32.2 mph N/A   Overcast
9:55 PM 12.2 °F -5.8 °F -2.2 °F 53% 29.99 in 10.0 mi NW 19.6 mph 29.9 mph N/A   Mostly Cloudy
10:15 PM 10.4 °F -9.1 °F -2.2 °F 57% 30.01 in 10.0 mi WNW 21.9 mph 35.7 mph N/A   Mostly Cloudy
10:35 PM 10.4 °F -5.4 °F -2.2 °F 57% 30.03 in 10.0 mi NW 13.8 mph 29.9 mph N/A   Mostly Cloudy
10:55 PM 10.4 °F -7.2 °F -4.0 °F 52% 30.04 in 10.0 mi NW 17.3 mph 26.5 mph N/A   Overcast
11:15 PM 8.6 °F -7.7 °F -5.8 °F 52% 30.06 in 10.0 mi NW 13.8 mph 25.3 mph N/A   Scattered Clouds
11:35 PM 8.6 °F -7.0 °F -4.0 °F 57% 30.07 in 10.0 mi NW 12.7 mph 23.0 mph N/A   Mostly Cloudy